TRAAC DEB, 10796

Orbit data source: Space-Track

TRAAC DEB, 10796 is space debris in LEO originally from an American launch on Wed, 15 Nov 1961 UTC launched from the Air Force Eastern Test Range (AFETR). Debris objects in space refer to the collection of defunct objects orbiting the Earth. Examples of debris include non-operational satellites, rocket bodies, and fragments generated from explosions, collisions, or faulty payload assembly.

Loading next visibility...
Identifier
10796, 1961-031D
Orbit
LEO
Country
Flag of USUS
Related business
Manufacturer
Unknown
Mission
Spacecraft
Bus & Motor
Unknown
Mass
Unknown
Launch date (UTC)
1961-11-15 (64 years ago)
Launch vehicle
Unknown
Launch site
Air Force Eastern Test Range (AFETR)
Object type
Payload
Rocket body
Debris
Shape & HBR
Unknown
Radar Cross Section
Small (<0.1 m²)

Expand to show TLE details & history
Last TLE update: 2 days ago

TLE from 2 days ago
0 TRAAC DEB
1 10796U 61031D   25260.38484644  .00000075  00000-0  63481-4 0  9998
2 10796  32.4427  24.6090 0101028 151.0477 245.1550 13.63207925182994
Epoch: 2025-09-17T09:14Z
TLE epoch observation values (Epoch: 2025-09-17T09:14:10.732Z)
Latitude
18.05976°
Longitude
-79.81185°
Altitude
1,054.283 km
Speed
7.312 km/s
True Right ascension
03h 41m 10s
True Declination
17° 57' 46"
Sunlit
Object was in daylight at epoch
Visualization orbit readout
Latitude
Unknown
Longitude
Unknown
Altitude
Unknown
Speed
Unknown
Apparent Right ascension
Unknown
Apparent Declination
Unknown
Sunlit
N/A
Visualization observer readout
Local Sidereal Time
14:25:33
Azimuth
Unknown
Elevation
Unknown
Doppler factor
Unknown
Orbital elements
Apogee altitude
1,102.261 km
Perigee altitude
952.627 km
Semi-major axis
7,405.581 km
Eccentricity
0.0101
Inclination
32.4427°
RAAN
24.609°
Arg. of periapsis
151.0477°
True anomaly
244.11006°
Mean anomaly
245.155°
Eccentric anomaly
244.63197°
Mean motion
3.40568 °/min
Orbital period
105.71 mins
BSTAR
0.000063481
Loading maneuver chart data...
Computing Atmospheric mass density...
Loading historical data...
Loading historical data...
Loading historical data...
Loading historical data...
Loading historical data...
Loading historical data...
Loading historical data...
Other satellites on launch #31 in the year 1961 (1961-11-15 UTC)

Documentation

Showing up to 5 results
|